"1997/01/01",131,132,130
"1997/01/02",130,133,126
"1997/01/03",129,132,123
"1997/01/04",124,127,122
"1997/01/05",123,128,119
"1997/01/06",128,130,123
"1997/01/07",130,131,127
"1997/01/08",128,130,126
"1997/01/09",126,127,123
"1997/01/10",122,124,120
"1997/01/11",122,124,120
"1997/01/12",123,125,122
"1997/01/13",123,125,121
"1997/01/14",123,125,122
"1997/01/15",124,126,122
"1997/01/16",124,125,123
"1997/01/17",124,126,123
"1997/01/18",125,126,123
"1997/01/19",126,128,124
"1997/01/20",125,127,124
"1997/01/21",125,129,122
"1997/01/22",125,129,122
"1997/01/23",126,127,124
"1997/01/24",126,128,125
"1997/01/25",127,131,123
"1997/01/26",127,131,124
"1997/01/27",127,131,125
"1997/01/28",128,129,126
"1997/01/29",128,130,127
"1997/01/30",128,130,127
"1997/01/31",129,130,127
"1997/02/01",127,130,122
"1997/02/02",123,124,121
"1997/02/03",127,129,123
"1997/02/04",126,131,122
"1997/02/05","*","*","*"
"1997/02/06","*","*","*"
"1997/02/07","*","*","*"
"1997/02/08","*","*","*"
"1997/02/09","*","*","*"
"1997/02/10","*","*","*"
"1997/02/11","*","*","*"
"1997/02/12",122,123,120
"1997/02/13",122,124,120
"1997/02/14",122,124,121
"1997/02/15",122,123,121
"1997/02/16",123,125,122
"1997/02/17",124,128,121
"1997/02/18",124,127,123
"1997/02/19",124,127,121
"1997/02/20",124,125,122
"1997/02/21",123,127,116
"1997/02/22",122,125,120
"1997/02/23",123,124,122
"1997/02/24",124,125,122
"1997/02/25",124,125,122
"1997/02/26",124,126,122
"1997/02/27",125,126,123
"1997/02/28",124,125,123
"1997/03/01",124,127,121
"1997/03/02",126,127,124
"1997/03/03",123,127,117
"1997/03/04",118,119,116
"1997/03/05",117,119,116
"1997/03/06",118,119,116
"1997/03/07",117,120,115
"1997/03/08",118,121,117
"1997/03/09",118,121,114
"1997/03/10",118,120,117
"1997/03/11",118,121,116
"1997/03/12",118,120,116
"1997/03/13",118,120,117
"1997/03/14",118,119,112
"1997/03/15",118,122,110
"1997/03/16",122,125,115
"1997/03/17",124,125,120
"1997/03/18",121,125,114
"1997/03/19",113,115,107
"1997/03/20",113,115,112
"1997/03/21",113,114,112
"1997/03/22",115,117,112
"1997/03/23",117,118,115
"1997/03/24",117,119,115
"1997/03/25",116,117,115
"1997/03/26",117,119,115
"1997/03/27",120,125,112
"1997/03/28",121,124,118
"1997/03/29",117,120,113
"1997/03/30",118,121,114
"1997/03/31",118,120,117
"1997/04/01",116,120,111
"1997/04/02",112,113,108
"1997/04/03",110,112,105
"1997/04/04",111,113,110
"1997/04/05",113,116,111
"1997/04/06",117,122,114
"1997/04/07",124,130,119
"1997/04/08",128,131,125
"1997/04/09",129,132,125
"1997/04/10",122,128,116
"1997/04/11",116,120,110
"1997/04/12",112,115,110
"1997/04/13",112,114,110
"1997/04/14",113,117,105
"1997/04/15",113,116,108
"1997/04/16",113,115,111
"1997/04/17",112,114,111
"1997/04/18",111,113,109
"1997/04/19",113,114,108
"1997/04/20",113,114,112
"1997/04/21",112,112,111
"1997/04/22",111,112,110
"1997/04/23",111,114,104
"1997/04/24",111,113,108
"1997/04/25",109,111,108
"1997/04/26",108,109,107
"1997/04/27",107,108,106
"1997/04/28",107,109,105
"1997/04/29",108,109,107
"1997/04/30",108,111,107
"1997/05/01",110,111,109
"1997/05/02",108,110,106
"1997/05/03",109,111,105
"1997/05/04",110,111,109
"1997/05/05",111,113,108
"1997/05/06",110,112,109
"1997/05/07",110,112,104
"1997/05/08",106,112, 99
"1997/05/09",115,119,108
"1997/05/10",118,119,116
"1997/05/11",118,120,116
"1997/05/12",118,120,109
"1997/05/13",118,120,117
"1997/05/14",116,119,112
"1997/05/15",113,115,109
"1997/05/16",110,111,109
"1997/05/17",111,113,106
"1997/05/18",111,113,110
"1997/05/19",112,114,111
"1997/05/20",114,116,110
"1997/05/21",111,117,102
"1997/05/22",111,113,101
"1997/05/23",113,114,112
"1997/05/24",114,119,110
"1997/05/25",135,144,116
"1997/05/26",143,146,135
"1997/05/27",142,145,136
"1997/05/28",134,138,127
"1997/05/29",124,127,116
"1997/05/30",115,118,109
"1997/05/31",110,111,107
"1997/06/01",110,111,109
"1997/06/02",109,110,108
"1997/06/03",109,110,107
"1997/06/04",110,113,109
"1997/06/05",110,112,108
"1997/06/06",111,113,105
"1997/06/07",111,113,109
"1997/06/08",110,113,103
"1997/06/09",112,114,111
"1997/06/10",117,119,112
"1997/06/11",117,120,111
"1997/06/12",113,114,111
"1997/06/13",113,115,111
"1997/06/14",113,115,112
"1997/06/15",113,114,112
"1997/06/16",113,115,109
"1997/06/17",113,115,108
"1997/06/18",113,115,112
"1997/06/19",115,117,114
"1997/06/20",119,129,109
"1997/06/21",132,136,125
"1997/06/22",134,136,130
"1997/06/23",129,132,122
"1997/06/24",121,124,115
"1997/06/25",113,116,107
"1997/06/26",108,109,106
"1997/06/27",109,110,106
"1997/06/28",108,110,102
"1997/06/29",108,111,100
"1997/06/30",108,109,107
"1997/07/01",108,109,106
"1997/07/02",107,108,105
"1997/07/03",107,108,106
"1997/07/04",105,107,104
"1997/07/05",104,106,102
"1997/07/06",104,106,100
"1997/07/07",101,104, 97
"1997/07/08",100,102, 96
"1997/07/09", 98,102, 93
"1997/07/10", 99,103, 94
"1997/07/11",103,105,102
"1997/07/12",105,107,103
"1997/07/13",106,107,105
"1997/07/14",108,110,105
"1997/07/15",108,109,107
"1997/07/16",107,108,106
"1997/07/17",107,109,102
"1997/07/18",110,112,108
"1997/07/19",111,112,110
"1997/07/20",111,112,110
"1997/07/21",110,111,109
"1997/07/22",110,110,109
"1997/07/23",109,110,106
"1997/07/24",109,110,108
"1997/07/25",108,110,107
"1997/07/26",107,109,104
"1997/07/27",109,110,107
"1997/07/28",110,111,109
"1997/07/29",110,111,109
"1997/07/30",110,112,109
"1997/07/31",113,116,110
"1997/08/01",115,117,114
"1997/08/02",117,118,115
"1997/08/03",116,117,115
"1997/08/04",115,116,113
"1997/08/05",113,115,109
"1997/08/06",112,115,109
"1997/08/07",110,112,106
"1997/08/08",110,111,109
"1997/08/09",108,110,104
"1997/08/10",107,109,105
"1997/08/11",108,110,104
"1997/08/12",107,108,106
"1997/08/13",106,108,103
"1997/08/14",108,111,102
"1997/08/15",110,112,105
"1997/08/16",110,112,104
"1997/08/17",110,111,104
"1997/08/18",109,110,108
"1997/08/19",109,110,108
"1997/08/20",108,109,107
"1997/08/21",109,110,106
"1997/08/22",108,109,107
"1997/08/23",108,110,104
"1997/08/24",107,109,106
"1997/08/25",106,109,100
"1997/08/26",107,109,102
"1997/08/27",107,109,105
"1997/08/28",107,109,106
"1997/08/29",107,108,106
"1997/08/30",107,109,105
"1997/08/31",107,108,105
"1997/09/01",107,108,105
"1997/09/02",106,107,104
"1997/09/03",107,108,105
"1997/09/04",107,108,106
"1997/09/05",106,109,102
"1997/09/06",106,107,105
"1997/09/07",105,107,103
"1997/09/08",110,120,103
"1997/09/09",122,125,118
"1997/09/10",119,124,115
"1997/09/11",119,120,117
"1997/09/12",118,120,112
"1997/09/13",117,121,111
"1997/09/14",115,120,108
"1997/09/15",114,116,109
"1997/09/16",113,116,107
"1997/09/17",118,121,112
"1997/09/18",120,126,115
"1997/09/19",124,127,119
"1997/09/20",126,128,123
"1997/09/21",124,127,122
"1997/09/22",120,124,117
"1997/09/23",116,120,114
"1997/09/24",114,116,108
"1997/09/25",115,117,112
"1997/09/26",117,120,114
"1997/09/27",120,121,119
"1997/09/28",122,124,120
"1997/09/29",122,123,121
"1997/09/30",120,124,116
"1997/10/01",115,119,111
"1997/10/02",110,112,109
"1997/10/03",110,111,109
"1997/10/04",110,111,109
"1997/10/05",112,113,110
"1997/10/06",113,114,112
"1997/10/07",114,115,112
"1997/10/08",114,118,110
"1997/10/09",114,116,112
"1997/10/10",114,116,113
"1997/10/11",113,116,104
"1997/10/12",115,117,111
"1997/10/13",114,116,113
"1997/10/14",111,115,108
"1997/10/15",109,112,108
"1997/10/16",109,111,107
"1997/10/17",110,111,109
"1997/10/18",110,111,109
"1997/10/19",110,111,109
"1997/10/20",109,111,108
"1997/10/21",110,111,108
"1997/10/22",110,112,108
"1997/10/23",110,111,109
"1997/10/24",110,111,109
"1997/10/25",109,112,103
"1997/10/26",110,112,107
"1997/10/27",108,111,106
"1997/10/28",109,110,107
"1997/10/29",108,111,107
"1997/10/30",108,110,107
"1997/10/31",108,111,107
"1997/11/01",108,110,105
"1997/11/02",108,109,106
"1997/11/03",108,109,107
"1997/11/04",108,109,106
"1997/11/05",108,110,106
"1997/11/06",107,108,105
"1997/11/07",107,109,104
"1997/11/08",107,109,106
"1997/11/09",106,108,105
"1997/11/10",106,108,105
"1997/11/11",106,107,105
"1997/11/12",106,107,105
"1997/11/13",107,109,105
"1997/11/14",108,109,107
"1997/11/15",109,110,107
"1997/11/16",110,110,109
"1997/11/17",111,113,105
"1997/11/18",111,113,109
"1997/11/19",111,113,109
"1997/11/20",113,114,112
"1997/11/21",114,116,112
"1997/11/22",115,117,114
"1997/11/23",118,120,116
"1997/11/24",118,119,117
"1997/11/25",118,120,117
"1997/11/26",118,120,115
"1997/11/27",120,122,112
"1997/11/28",121,123,118
"1997/11/29",122,126,120
"1997/11/30",126,130,119
"1997/12/01",130,132,129
"1997/12/02",133,137,129
"1997/12/03",132,135,129
"1997/12/04",127,131,125
"1997/12/05",124,127,122
"1997/12/06",120,123,119
"1997/12/07",120,121,120
"1997/12/08",122,125,120
"1997/12/09",124,125,123
"1997/12/10",124,126,121
"1997/12/11",124,124,123
"1997/12/12",124,126,121
"1997/12/13",125,127,123
"1997/12/14",125,126,123
"1997/12/15",124,125,123
"1997/12/16",125,126,124
"1997/12/17",126,127,124
"1997/12/18",128,129,125
"1997/12/19",129,130,127
"1997/12/20",129,131,128
"1997/12/21",131,132,129
"1997/12/22",131,133,130
"1997/12/23",130,133,124
"1997/12/24",122,125,118
"1997/12/25",116,118,115
"1997/12/26",116,117,115
"1997/12/27",115,117,115
"1997/12/28",116,118,114
"1997/12/29",116,118,115
"1997/12/30",118,121,116
"1997/12/31",120,121,118
